{"data":{"norad_id":89261,"intl_designator":"","name":"UNKNOWN","alt_names":[],"object_type":"UNKNOWN","status":"UNKNOWN","operator":null,"country":null,"launch_date":null,"launch_site_code":null,"launch_vehicle":null,"mission":null,"orbit_class":"UNKNOWN","rcs_meters":null,"size_class":null,"mass_kg":null,"dimensions":null,"purposes":[],"wikipedia_slug":null,"has_3d_model":false,"image_url":null,"decayed_at":null,"tle_current":{"epoch":"2026-09-14T05:43:42.669984Z","epoch_age_seconds":555271,"freshness":"STALE","line1":"1 89261U          26257.23868831  .00000527  00000+0  16750-3 0  9992","line2":"2 89261  98.1734 245.2868 0013901  46.0592 314.1743 14.43592186573556","mean_motion":14.43592186,"eccentricity":0.0013901,"inclination_deg":98.1734,"raan_deg":245.2868,"arg_perigee_deg":46.0592,"mean_anomaly_deg":314.1743,"bstar":0.0001675,"rev_number":57355,"period_min":99.751163380154,"perigee_km":736.75032599472,"apogee_km":756.55867131928,"semimajor_km":7124.791498657,"source":"CELESTRAK","updated_at":"2026-09-20T09:00:32.484439Z"}}}